{"data":{"norad_id":66561,"epoch":"2026-09-20T21:21:11.037312Z","epoch_age_seconds":55635,"freshness":"FRESH","line1":"1 66561U 25268E   26263.88971108  .00012402  00000+0  45922-3 0  9991","line2":"2 66561  43.0034 324.6280 0002986 265.0909  94.9602 15.27593636 47818","mean_motion":15.27593636,"eccentricity":0.0002986,"inclination_deg":43.0034,"raan_deg":324.628,"arg_perigee_deg":265.0909,"mean_anomaly_deg":94.9602,"bstar":0.00045922,"rev_number":4781,"period_min":94.265907245505,"perigee_km":480.95952727765,"apogee_km":485.05700323006,"semimajor_km":6861.1452652539,"source":"CELESTRAK","updated_at":"2026-09-21T09:00:35.970209Z"}}